When you browse on this site, cookies collect data to enhance your experience and personalize the content and advertising you see.
Visit our Privacy Policy to learn more. By continuing to use the site, you agree to this use of cookies and data.
  • In Romania
  • List of Countries
  • For 7 days
  • Water Temperature
  • Satellite Maps
  • Weather Map
  • Weather Widgets
  • user-avatar
    Login

    Hourly Weather Balchik

    Today, 21 April, Sunday

    Time Temperature Precipitation Wind Pressure Humidity
    00:00 +3°C° 0 mm 2 mps 746 mmHg 63%
    01:00 +3°C° 0 mm 2 mps 746 mmHg 65%
    02:00 +3°C° 0 mm 2 mps 745 mmHg 69%
    03:00 +3°C° 0 mm 2 mps 745 mmHg 71%
    04:00 +3°C° 0 mm 2 mps 745 mmHg 72%
    05:00 +2°C° 0 mm 3 mps 745 mmHg 74%
    06:00 +4°C° 0 mm 3 mps 745 mmHg 71%
    07:00 +5°C° 0 mm 3 mps 745 mmHg 67%
    08:00 +8°C° 0 mm 3 mps 745 mmHg 63%
    09:00 +10°C° 0 mm 3 mps 745 mmHg 57%
    10:00 +11°C° 0 mm 3 mps 745 mmHg 52%
    11:00 +13°C° 0 mm 3 mps 745 mmHg 46%
    12:00 +14°C° 0.1 mm 2 mps 745 mmHg 48%
    13:00 +13°C° 0.1 mm 2 mps 745 mmHg 50%
    14:00 +13°C° 0.1 mm 1 mps 744 mmHg 52%
    15:00 +13°C° 0.1 mm 2 mps 744 mmHg 55%
    16:00 +12°C° 0.1 mm 2 mps 744 mmHg 59%
    17:00 +11°C° 0.1 mm 3 mps 743 mmHg 63%
    18:00 +9°C° 0 mm 3 mps 743 mmHg 67%
    19:00 +7°C° 0 mm 3 mps 743 mmHg 71%
    20:00 +5°C° 0 mm 3 mps 743 mmHg 75%
    21:00 +4°C° 0 mm 3 mps 743 mmHg 73%
    22:00 +4°C° 0 mm 3 mps 743 mmHg 72%
    23:00 +4°C° 0 mm 3 mps 743 mmHg 70%

    Tomorrow, 22 April, Monday

    Time Temperature Precipitation Wind Pressure Humidity
    00:00 +4°C° 0 mm 3 mps 743 mmHg 70%
    01:00 +4°C° 0 mm 2 mps 743 mmHg 71%
    02:00 +4°C° 0 mm 2 mps 743 mmHg 71%
    03:00 +4°C° 0 mm 2 mps 743 mmHg 72%
    04:00 +3°C° 0 mm 3 mps 743 mmHg 73%
    05:00 +3°C° 0 mm 3 mps 742 mmHg 73%
    06:00 +5°C° 0 mm 4 mps 743 mmHg 71%
    07:00 +6°C° 0 mm 4 mps 743 mmHg 68%
    08:00 +8°C° 0 mm 5 mps 743 mmHg 65%
    09:00 +8°C° 0 mm 5 mps 743 mmHg 64%
    10:00 +9°C° 0 mm 5 mps 744 mmHg 62%
    11:00 +9°C° 0 mm 6 mps 744 mmHg 61%
    12:00 +9°C° 0 mm 6 mps 744 mmHg 58%
    13:00 +10°C° 0 mm 6 mps 744 mmHg 56%
    14:00 +10°C° 0 mm 6 mps 744 mmHg 54%
    15:00 +10°C° 0 mm 6 mps 744 mmHg 54%
    16:00 +9°C° 0 mm 6 mps 744 mmHg 54%
    17:00 +9°C° 0 mm 5 mps 744 mmHg 55%
    18:00 +7°C° 0 mm 5 mps 744 mmHg 60%
    19:00 +6°C° 0 mm 4 mps 744 mmHg 65%
    20:00 +5°C° 0 mm 3 mps 744 mmHg 69%
    21:00 +4°C° 0 mm 3 mps 744 mmHg 72%
    22:00 +4°C° 0 mm 3 mps 745 mmHg 75%
    23:00 +4°C° 0 mm 3 mps 745 mmHg 77%

    Day after tomorrow, 23 April, Tuesday

    Time Temperature Precipitation Wind Pressure Humidity
    00:00 +4°C° 0 mm 3 mps 745 mmHg 80%
    01:00 +3°C° 0 mm 3 mps 744 mmHg 83%
    02:00 +3°C° 0 mm 3 mps 744 mmHg 86%
    03:00 +4°C° 0 mm 2 mps 745 mmHg 86%
    04:00 +4°C° 0 mm 2 mps 745 mmHg 87%
    05:00 +4°C° 0 mm 2 mps 745 mmHg 88%
    06:00 +4°C° 0 mm 3 mps 745 mmHg 83%
    07:00 +7°C° 0 mm 3 mps 746 mmHg 79%
    08:00 +8°C° 0 mm 3 mps 746 mmHg 74%
    09:00 +8°C° 0 mm 4 mps 746 mmHg 69%
    10:00 +9°C° 0 mm 5 mps 746 mmHg 65%
    11:00 +10°C° 0 mm 5 mps 747 mmHg 61%
    12:00 +12°C° 0 mm 5 mps 746 mmHg 61%
    13:00 +12°C° 0 mm 5 mps 746 mmHg 61%
    14:00 +11°C° 0 mm 6 mps 746 mmHg 61%
    15:00 +10°C° 0 mm 6 mps 746 mmHg 62%
    16:00 +9°C° 0 mm 5 mps 746 mmHg 63%
    17:00 +9°C° 0 mm 5 mps 745 mmHg 65%
    18:00 +8°C° 0 mm 5 mps 745 mmHg 67%
    19:00 +7°C° 0 mm 5 mps 745 mmHg 69%
    20:00 +7°C° 0 mm 5 mps 746 mmHg 71%
    21:00 +6°C° 0 mm 5 mps 746 mmHg 75%
    22:00 +6°C° 0 mm 5 mps 746 mmHg 79%
    23:00 +6°C° 0 mm 4 mps 746 mmHg 82%

    24 April, Wednesday

    Time Temperature Precipitation Wind Pressure Humidity
    00:00 +6°C° 0 mm 4 mps 745 mmHg 86%
    01:00 +6°C° 0 mm 4 mps 745 mmHg 90%
    02:00 +5°C° 0 mm 4 mps 745 mmHg 94%
    03:00 +5°C° 0 mm 4 mps 745 mmHg 95%
    04:00 +5°C° 0 mm 4 mps 745 mmHg 95%
    05:00 +5°C° 0 mm 3 mps 745 mmHg 96%
    06:00 +7°C° 0 mm 4 mps 746 mmHg 89%
    07:00 +8°C° 0 mm 4 mps 746 mmHg 83%
    08:00 +11°C° 0 mm 4 mps 747 mmHg 77%
    09:00 +12°C° 0 mm 4 mps 747 mmHg 72%
    10:00 +13°C° 0 mm 4 mps 747 mmHg 66%
    11:00 +15°C° 0 mm 4 mps 747 mmHg 60%
    12:00 +15°C° 0 mm 4 mps 747 mmHg 59%
    13:00 +17°C° 0 mm 4 mps 747 mmHg 58%
    14:00 +17°C° 0 mm 4 mps 747 mmHg 57%
    15:00 +15°C° 0 mm 4 mps 747 mmHg 60%
    16:00 +14°C° 0 mm 4 mps 746 mmHg 63%
    17:00 +13°C° 0 mm 5 mps 746 mmHg 65%
    18:00 +11°C° 0 mm 4 mps 746 mmHg 74%
    19:00 +8°C° 0 mm 4 mps 746 mmHg 83%
    20:00 +8°C° 0 mm 3 mps 747 mmHg 92%
    21:00 +7°C° 0 mm 3 mps 747 mmHg 92%
    22:00 +7°C° 0 mm 3 mps 747 mmHg 93%
    23:00 +7°C° 0 mm 3 mps 747 mmHg 93%

    25 April, Thursday

    Time Temperature Precipitation Wind Pressure Humidity
    00:00 +7°C° 0 mm 3 mps 747 mmHg 93%
    01:00 +7°C° 0 mm 3 mps 747 mmHg 93%
    02:00 +7°C° 0 mm 3 mps 747 mmHg 92%
    03:00 +7°C° 0 mm 3 mps 747 mmHg 92%
    04:00 +5°C° 0 mm 3 mps 747 mmHg 93%
    05:00 +5°C° 0 mm 3 mps 747 mmHg 93%
    06:00 +8°C° 0 mm 3 mps 747 mmHg 87%
    07:00 +10°C° 0 mm 4 mps 747 mmHg 81%
    08:00 +12°C° 0 mm 4 mps 747 mmHg 75%
    09:00 +13°C° 0 mm 4 mps 748 mmHg 70%
    10:00 +14°C° 0 mm 4 mps 748 mmHg 65%
    11:00 +17°C° 0 mm 4 mps 748 mmHg 60%
    12:00 +17°C° 0 mm 4 mps 748 mmHg 59%
    13:00 +16°C° 0 mm 5 mps 747 mmHg 59%
    14:00 +17°C° 0 mm 5 mps 747 mmHg 59%
    15:00 +16°C° 0 mm 5 mps 747 mmHg 61%
    16:00 +15°C° 0 mm 5 mps 747 mmHg 64%
    17:00 +14°C° 0 mm 5 mps 746 mmHg 67%
    18:00 +12°C° 0 mm 4 mps 746 mmHg 74%
    19:00 +10°C° 0 mm 4 mps 746 mmHg 80%
    20:00 +8°C° 0 mm 3 mps 746 mmHg 86%
    21:00 +8°C° 0 mm 3 mps 746 mmHg 86%
    22:00 +8°C° 0 mm 3 mps 746 mmHg 87%
    23:00 +7°C° 0 mm 3 mps 746 mmHg 87%

    26 April, Friday

    Time Temperature Precipitation Wind Pressure Humidity
    00:00 +7°C° 0 mm 3 mps 746 mmHg 87%
    01:00 +7°C° 0 mm 3 mps 745 mmHg 87%
    02:00 +7°C° 0 mm 3 mps 745 mmHg 88%
    03:00 +7°C° 0 mm 3 mps 745 mmHg 88%
    04:00 +7°C° 0 mm 3 mps 745 mmHg 89%
    05:00 +7°C° 0 mm 3 mps 744 mmHg 90%
    06:00 +9°C° 0 mm 3 mps 745 mmHg 84%
    07:00 +10°C° 0 mm 4 mps 745 mmHg 79%
    08:00 +12°C° 0 mm 5 mps 745 mmHg 73%
    09:00 +13°C° 0 mm 5 mps 745 mmHg 69%
    10:00 +15°C° 0 mm 5 mps 745 mmHg 66%
    11:00 +16°C° 0 mm 5 mps 745 mmHg 62%
    12:00 +16°C° 0 mm 5 mps 744 mmHg 61%
    13:00 +16°C° 0 mm 5 mps 744 mmHg 59%
    14:00 +16°C° 0 mm 5 mps 743 mmHg 58%
    15:00 +16°C° 0 mm 5 mps 743 mmHg 60%
    16:00 +15°C° 0 mm 4 mps 743 mmHg 62%
    17:00 +14°C° 0 mm 4 mps 742 mmHg 64%
    18:00 +13°C° 0 mm 4 mps 742 mmHg 69%
    19:00 +11°C° 0 mm 3 mps 742 mmHg 74%
    20:00 +10°C° 0 mm 3 mps 742 mmHg 78%
    21:00 +9°C° 0 mm 3 mps 742 mmHg 78%
    22:00 +9°C° 0 mm 3 mps 742 mmHg 78%
    23:00 +9°C° 0 mm 3 mps 742 mmHg 78%
    Show more